| time (UTC) | temp C | wind direction | speed KPH | gust KPH | rain 1hr cm | rain 24hr cm | rain mn cm | humidity % | barometer mb |
| 20260507075518 | 17 | 0 | 0.0 | 0.0 | 0.00 | 0.53 | 0.51 | 60 | 1010.6 |
| 20260507074538 | 16 | 0 | 0.0 | 0.0 | 0.00 | 0.53 | 0.51 | 65 | 1010.6 |
| 20260507073518 | 16 | 0 | 0.0 | 0.0 | 0.00 | 0.53 | 0.51 | 66 | 1010.5 |
| 20260507072519 | 15 | 0 | 0.0 | 0.0 | 0.00 | 0.53 | 0.51 | 70 | 1010.5 |
| 20260507071540 | 15 | 0 | 0.0 | 0.0 | 0.00 | 0.53 | 0.51 | 70 | 1010.3 |
| 20260507070519 | 16 | 0 | 0.0 | 0.0 | 0.00 | 0.53 | 0.51 | 71 | 1010.3 |
| 20260507065519 | 15 | 0 | 0.0 | 0.0 | 0.00 | 0.53 | 0.51 | 71 | 1010.2 |
| 20260507064539 | 15 | 0 | 0.0 | 0.0 | 0.00 | 0.53 | 0.51 | 72 | 1010.2 |
| 20260507063520 | 15 | 0 | 0.0 | 0.0 | 0.00 | 0.53 | 0.51 | 73 | 1010.2 |
| 20260507062519 | 15 | 0 | 0.0 | 0.0 | 0.00 | 0.53 | 0.51 | 72 | 1010.1 |
| 20260507061541 | 16 | 0 | 0.0 | 0.0 | 0.00 | 0.53 | 0.51 | 71 | 1010.0 |
| 20260507060520 | 16 | 0 | 0.0 | 0.0 | 0.00 | 0.53 | 0.51 | 71 | 1009.7 |
| 20260507055519 | 17 | 0 | 0.0 | 0.0 | 0.00 | 0.53 | 0.51 | 70 | 1009.7 |
| 20260507054531 | 17 | 0 | 0.0 | 0.0 | 0.00 | 0.53 | 0.51 | 70 | 1009.6 |
| 20260507053520 | 17 | 135 | 0.0 | 1.6 | 0.00 | 0.53 | 0.51 | 70 | 1009.5 |
| 20260507052520 | 15 | 181 | 0.0 | 1.6 | 0.00 | 0.53 | 0.51 | 78 | 1009.5 |
| 20260507051532 | 15 | 0 | 0.0 | 0.0 | 0.00 | 0.53 | 0.51 | 81 | 1009.4 |
| 20260507050520 | 15 | 0 | 0.0 | 0.0 | 0.00 | 0.53 | 0.51 | 83 | 1009.4 |
| 20260507045521 | 15 | 0 | 0.0 | 0.0 | 0.00 | 0.53 | 0.51 | 91 | 1009.3 |
| 20260507044532 | 14 | 135 | 0.0 | 1.6 | 0.00 | 0.53 | 0.51 | 97 | 1009.1 |
| 20260507043520 | 13 | 22 | 0.0 | 1.6 | 0.00 | 0.53 | 0.51 | 98 | 1009.0 |
| 20260507042520 | 11 | 0 | 0.0 | 0.0 | 0.00 | 0.53 | 0.51 | 99 | 1008.9 |
| 20260507041532 | 11 | 0 | 0.0 | 0.0 | 0.00 | 0.53 | 0.51 | 99 | 1009.0 |
| 20260507040522 | 10 | 0 | 0.0 | 0.0 | 0.00 | 0.53 | 0.51 | 99 | 1009.0 |
| 20260507035520 | 10 | 0 | 0.0 | 0.0 | 0.00 | 0.53 | 0.51 | 99 | 1008.9 |
| 20260507034532 | 10 | 0 | 0.0 | 0.0 | 0.00 | 0.53 | 0.51 | 99 | 1008.6 |
| 20260507033522 | 10 | 0 | 0.0 | 0.0 | 0.00 | 0.53 | 0.51 | 99 | 1008.4 |
| 20260507032520 | 10 | 0 | 0.0 | 0.0 | 0.00 | 0.53 | 0.51 | 99 | 1008.4 |
| 20260507031534 | 10 | 0 | 0.0 | 0.0 | 0.00 | 0.53 | 0.51 | 99 | 1008.4 |
| 20260507030521 | 11 | 0 | 0.0 | 0.0 | 0.00 | 0.53 | 0.51 | 99 | 1008.4 |
| 20260507025521 | 11 | 0 | 0.0 | 0.0 | 0.00 | 0.53 | 0.51 | 99 | 1008.4 |
| 20260507024532 | 11 | 0 | 0.0 | 0.0 | 0.00 | 0.53 | 0.51 | 99 | 1008.4 |
| 20260507023521 | 11 | 0 | 0.0 | 0.0 | 0.00 | 0.53 | 0.51 | 99 | 1008.4 |
| 20260507022521 | 11 | 0 | 0.0 | 0.0 | 0.00 | 0.53 | 0.51 | 99 | 1008.3 |
| 20260507021540 | 11 | 0 | 0.0 | 0.0 | 0.00 | 0.53 | 0.51 | 99 | 1008.2 |
| 20260507020522 | 11 | 0 | 0.0 | 0.0 | 0.00 | 0.53 | 0.51 | 99 | 1008.3 |
| 20260507015522 | 11 | 0 | 0.0 | 0.0 | 0.00 | 0.53 | 0.51 | 99 | 1008.2 |
| 20260507014541 | 11 | 0 | 0.0 | 0.0 | 0.00 | 0.53 | 0.51 | 99 | 1008.3 |
| 20260507013521 | 11 | 0 | 0.0 | 0.0 | 0.00 | 0.53 | 0.51 | 99 | 1008.3 |
| 20260507012523 | 11 | 0 | 0.0 | 0.0 | 0.00 | 0.53 | 0.51 | 99 | 1008.0 |
| 20260507011543 | 11 | 0 | 0.0 | 0.0 | 0.00 | 0.53 | 0.51 | 99 | 1008.0 |
| 20260507010522 | 12 | 0 | 0.0 | 0.0 | 0.00 | 0.53 | 0.51 | 99 | 1007.9 |
| 20260507005522 | 12 | 0 | 0.0 | 0.0 | 0.00 | 0.53 | 0.51 | 99 | 1007.8 |
| 20260507004541 | 12 | 0 | 0.0 | 0.0 | 0.00 | 0.53 | 0.51 | 99 | 1007.6 |
| 20260507003522 | 12 | 0 | 0.0 | 0.0 | 0.00 | 0.53 | 0.51 | 99 | 1007.5 |
| 20260507002523 | 12 | 0 | 0.0 | 0.0 | 0.00 | 0.53 | 0.51 | 97 | 1007.5 |
| 20260507001543 | 12 | 0 | 0.0 | 0.0 | 0.00 | 0.53 | 0.51 | 97 | 1007.5 |
| 20260507000523 | 12 | 0 | 0.0 | 0.0 | 0.00 | 0.53 | 0.51 | 97 | 1007.4 |
| 20260506235523 | 13 | 0 | 0.0 | 0.0 | 0.00 | 0.53 | 0.51 | 97 | 1007.3 |
| 20260506234541 | 13 | 0 | 0.0 | 0.0 | 0.00 | 0.53 | 0.51 | 97 | 1007.3 |
| 20260506233523 | 13 | 0 | 0.0 | 0.0 | 0.00 | 0.53 | 0.51 | 97 | 1007.0 |
| 20260506232523 | 13 | 0 | 0.0 | 0.0 | 0.00 | 0.53 | 0.51 | 96 | 1006.9 |
| 20260506231544 | 13 | 0 | 0.0 | 0.0 | 0.00 | 0.53 | 0.51 | 96 | 1007.1 |
| 20260506230523 | 13 | 0 | 0.0 | 0.0 | 0.00 | 0.53 | 0.51 | 96 | 1007.3 |
| 20260506225523 | 13 | 0 | 0.0 | 0.0 | 0.00 | 0.53 | 0.51 | 96 | 1007.0 |
| 20260506224543 | 13 | 0 | 0.0 | 0.0 | 0.00 | 0.53 | 0.51 | 96 | 1006.7 |
| 20260506223523 | 13 | 0 | 0.0 | 0.0 | 0.00 | 0.53 | 0.51 | 96 | 1006.9 |
| 20260506222524 | 13 | 0 | 0.0 | 0.0 | 0.00 | 0.53 | 0.51 | 96 | 1007.1 |
| 20260506221545 | 13 | 0 | 0.0 | 0.0 | 0.00 | 0.53 | 0.51 | 95 | 1006.9 |
| 20260506220524 | 13 | 0 | 0.0 | 0.0 | 0.00 | 0.56 | 0.51 | 94 | 1007.0 |
| 20260506215524 | 13 | 0 | 0.0 | 0.0 | 0.00 | 0.61 | 0.51 | 94 | 1006.7 |
| 20260506214544 | 13 | 0 | 0.0 | 0.0 | 0.05 | 0.64 | 0.51 | 94 | 1006.7 |
| 20260506213525 | 13 | 0 | 0.0 | 0.0 | 0.13 | 0.66 | 0.51 | 93 | 1006.6 |
| 20260506212524 | 13 | 0 | 0.0 | 0.0 | 0.18 | 0.71 | 0.51 | 92 | 1006.3 |
| 20260506211546 | 14 | 0 | 0.0 | 0.0 | 0.20 | 0.79 | 0.51 | 92 | 1006.4 |
| 20260506210525 | 14 | 0 | 0.0 | 0.0 | 0.48 | 0.86 | 0.51 | 92 | 1006.5 |
| 20260506205525 | 14 | 0 | 0.0 | 0.0 | 0.48 | 0.89 | 0.51 | 93 | 1006.5 |
| 20260506204544 | 14 | 0 | 0.0 | 0.0 | 0.43 | 0.94 | 0.46 | 93 | 1006.5 |
| 20260506203525 | 14 | 0 | 0.0 | 0.0 | 0.36 | 0.99 | 0.38 | 93 | 1006.6 |
| 20260506202525 | 14 | 0 | 0.0 | 0.0 | 0.30 | 0.97 | 0.33 | 91 | 1006.8 |
| 20260506201547 | 15 | 0 | 0.0 | 0.0 | 0.28 | 0.94 | 0.30 | 89 | 1007.1 |
| 20260506200524 | 15 | 0 | 0.0 | 0.0 | 0.00 | 0.66 | 0.03 | 85 | 1006.7 |
| 20260506195525 | 15 | 0 | 0.0 | 0.0 | 0.00 | 0.66 | 0.03 | 85 | 1006.1 |
| 20260506194544 | 15 | 0 | 0.0 | 0.0 | 0.00 | 0.66 | 0.03 | 84 | 1005.6 |
| 20260506193525 | 16 | 0 | 0.0 | 0.0 | 0.00 | 0.66 | 0.03 | 82 | 1005.3 |
| 20260506192526 | 16 | 0 | 0.0 | 0.0 | 0.00 | 0.66 | 0.03 | 82 | 1005.5 |
| 20260506191547 | 16 | 0 | 0.0 | 0.0 | 0.00 | 0.66 | 0.03 | 82 | 1005.5 |
| 20260506190526 | 15 | 0 | 0.0 | 0.0 | 0.00 | 0.66 | 0.03 | 86 | 1005.3 |
| 20260506185525 | 15 | 0 | 0.0 | 0.0 | 0.00 | 0.66 | 0.03 | 86 | 1004.9 |
| 20260506184545 | 15 | 0 | 0.0 | 0.0 | 0.00 | 0.66 | 0.03 | 86 | 1004.9 |
| 20260506183525 | 15 | 0 | 0.0 | 0.0 | 0.00 | 0.66 | 0.03 | 85 | 1004.8 |
| 20260506182526 | 16 | 0 | 0.0 | 0.0 | 0.00 | 0.66 | 0.03 | 83 | 1004.7 |
| 20260506181546 | 16 | 0 | 0.0 | 0.0 | 0.00 | 0.66 | 0.03 | 81 | 1004.3 |
| 20260506180527 | 17 | 0 | 0.0 | 0.0 | 0.00 | 0.66 | 0.03 | 79 | 1004.3 |
| 20260506175526 | 17 | 0 | 0.0 | 0.0 | 0.00 | 0.66 | 0.03 | 78 | 1004.3 |
| 20260506174539 | 17 | 0 | 0.0 | 0.0 | 0.00 | 0.66 | 0.03 | 77 | 1004.3 |
| 20260506173526 | 17 | 0 | 0.0 | 0.0 | 0.00 | 0.66 | 0.03 | 74 | 1004.2 |
| 20260506172526 | 18 | 0 | 0.0 | 0.0 | 0.00 | 0.66 | 0.03 | 72 | 1004.2 |
| 20260506171538 | 19 | 0 | 0.0 | 0.0 | 0.00 | 0.66 | 0.03 | 70 | 1004.3 |
| 20260506170527 | 18 | 0 | 0.0 | 0.0 | 0.00 | 0.66 | 0.03 | 76 | 1004.2 |
| 20260506165527 | 17 | 0 | 0.0 | 0.0 | 0.00 | 0.66 | 0.03 | 76 | 1004.1 |
| 20260506164537 | 17 | 0 | 0.0 | 0.0 | 0.00 | 0.66 | 0.03 | 77 | 1004.1 |
| 20260506163527 | 17 | 0 | 0.0 | 0.0 | 0.00 | 0.66 | 0.03 | 72 | 1004.2 |
| 20260506162527 | 17 | 0 | 0.0 | 0.0 | 0.00 | 0.66 | 0.03 | 70 | 1004.5 |
| 20260506161539 | 17 | 0 | 0.0 | 0.0 | 0.03 | 0.66 | 0.03 | 69 | 1004.4 |
| 20260506160527 | 18 | 0 | 0.0 | 0.0 | 0.05 | 0.66 | 0.03 | 71 | 1004.5 |
| 20260506155527 | 18 | 0 | 0.0 | 0.0 | 0.05 | 0.66 | 0.03 | 71 | 1004.7 |
| 20260506154539 | 17 | 0 | 0.0 | 0.0 | 0.05 | 0.66 | 0.03 | 75 | 1004.5 |
| 20260506153527 | 16 | 0 | 0.0 | 0.0 | 0.05 | 0.66 | 0.03 | 78 | 1004.7 |
| 20260506152528 | 16 | 0 | 0.0 | 0.0 | 0.05 | 0.66 | 0.03 | 78 | 1005.0 |
| 20260506151551 | 16 | 0 | 0.0 | 0.0 | 0.03 | 0.64 | 0.00 | 74 | 1004.9 |
| 20260506150528 | 17 | 0 | 0.0 | 0.0 | 0.00 | 0.61 | 0.61 | 63 | 1005.0 |
| 20260506145528 | 18 | 0 | 0.0 | 0.0 | 0.00 | 0.61 | 0.61 | 63 | 1004.9 |
| 20260506144547 | 18 | 0 | 0.0 | 0.0 | 0.00 | 0.61 | 0.61 | 58 | 1004.9 |
| 20260506143529 | 20 | 0 | 0.0 | 0.0 | 0.00 | 0.61 | 0.61 | 55 | 1005.2 |
| 20260506142529 | 21 | 0 | 0.0 | 0.0 | 0.00 | 0.61 | 0.61 | 54 | 1005.2 |
| 20260506141549 | 21 | 0 | 0.0 | 0.0 | 0.00 | 0.61 | 0.61 | 51 | 1005.0 |
| 20260506140528 | 22 | 0 | 0.0 | 0.0 | 0.00 | 0.61 | 0.61 | 42 | 1004.9 |
| 20260506135529 | 22 | 0 | 0.0 | 0.0 | 0.00 | 0.61 | 0.61 | 41 | 1005.0 |
| 20260506134547 | 22 | 0 | 0.0 | 0.0 | 0.00 | 0.61 | 0.61 | 40 | 1004.9 |
| 20260506133529 | 23 | 0 | 0.0 | 0.0 | 0.00 | 0.61 | 0.61 | 41 | 1005.1 |
| 20260506132529 | 23 | 0 | 0.0 | 0.0 | 0.00 | 0.61 | 0.61 | 41 | 1005.1 |
| 20260506131550 | 23 | 0 | 0.0 | 0.0 | 0.00 | 0.61 | 0.61 | 40 | 1005.1 |
| 20260506130529 | 24 | 314 | 0.0 | 1.6 | 0.00 | 0.61 | 0.61 | 39 | 1005.2 |
| 20260506125529 | 25 | 314 | 0.0 | 1.6 | 0.00 | 0.61 | 0.61 | 37 | 1005.3 |
| 20260506124548 | 25 | 0 | 0.0 | 0.0 | 0.00 | 0.61 | 0.61 | 40 | 1005.6 |
| 20260506123530 | 22 | 0 | 0.0 | 0.0 | 0.00 | 0.61 | 0.61 | 41 | 1005.6 |
| 20260506122530 | 23 | 0 | 0.0 | 0.0 | 0.00 | 0.61 | 0.61 | 41 | 1005.8 |
| 20260506121550 | 24 | 0 | 0.0 | 0.0 | 0.00 | 0.61 | 0.61 | 41 | 1006.0 |
| 20260506120529 | 22 | 0 | 0.0 | 0.0 | 0.00 | 0.61 | 0.61 | 43 | 1006.1 |
| 20260506115529 | 23 | 0 | 0.0 | 0.0 | 0.00 | 0.61 | 0.61 | 43 | 1006.2 |
| 20260506114549 | 23 | 0 | 0.0 | 0.0 | 0.00 | 0.61 | 0.61 | 43 | 1006.2 |
| 20260506113529 | 24 | 0 | 0.0 | 0.0 | 0.00 | 0.61 | 0.61 | 44 | 1006.1 |
| 20260506112530 | 23 | 0 | 0.0 | 0.0 | 0.00 | 0.61 | 0.61 | 43 | 1006.2 |
| 20260506111551 | 23 | 0 | 0.0 | 0.0 | 0.00 | 0.61 | 0.61 | 44 | 1006.4 |
| 20260506110530 | 23 | 0 | 0.0 | 0.0 | 0.00 | 0.61 | 0.61 | 45 | 1006.5 |
| 20260506105531 | 23 | 0 | 0.0 | 0.0 | 0.00 | 0.61 | 0.61 | 45 | 1006.5 |
| 20260506104549 | 22 | 0 | 0.0 | 0.0 | 0.00 | 0.61 | 0.61 | 46 | 1006.7 |
| 20260506103531 | 22 | 0 | 0.0 | 0.0 | 0.00 | 0.61 | 0.61 | 50 | 1006.7 |
| 20260506102531 | 22 | 0 | 0.0 | 0.0 | 0.00 | 0.61 | 0.61 | 50 | 1006.9 |
| 20260506101551 | 22 | 127 | 0.0 | 1.6 | 0.00 | 0.61 | 0.61 | 50 | 1006.7 |
| 20260506100531 | 21 | 0 | 0.0 | 0.0 | 0.00 | 0.61 | 0.61 | 51 | 1006.9 |
| 20260506095531 | 21 | 0 | 0.0 | 0.0 | 0.00 | 0.61 | 0.61 | 51 | 1007.0 |
| 20260506094550 | 21 | 0 | 0.0 | 0.0 | 0.00 | 0.61 | 0.61 | 50 | 1007.0 |
| 20260506093531 | 21 | 0 | 0.0 | 0.0 | 0.00 | 0.61 | 0.61 | 52 | 1007.0 |
| 20260506092531 | 20 | 0 | 0.0 | 0.0 | 0.00 | 0.61 | 0.61 | 53 | 1007.0 |
| 20260506091552 | 20 | 181 | 0.0 | 1.6 | 0.00 | 0.61 | 0.61 | 53 | 1007.0 |
| 20260506090531 | 20 | 0 | 0.0 | 0.0 | 0.00 | 0.61 | 0.61 | 54 | 1007.0 |
| 20260506085531 | 20 | 0 | 0.0 | 0.0 | 0.00 | 0.61 | 0.61 | 54 | 1007.2 |
| 20260506084551 | 20 | 0 | 0.0 | 0.0 | 0.00 | 0.61 | 0.61 | 57 | 1007.2 |
| 20260506083532 | 18 | 0 | 0.0 | 0.0 | 0.00 | 0.61 | 0.61 | 60 | 1007.2 |
| 20260506082531 | 19 | 0 | 0.0 | 0.0 | 0.00 | 0.61 | 0.61 | 58 | 1007.1 |
| 20260506081554 | 19 | 0 | 0.0 | 0.0 | 0.00 | 0.61 | 0.61 | 60 | 1007.1 |
| 20260506080532 | 18 | 0 | 0.0 | 0.0 | 0.00 | 0.61 | 0.61 | 61 | 1007.2 |